SL-14 DEB, 45324

Orbit data source: Space-Track

SL-14 DEB, 45324 is space debris in LEO originally from a launch on Thu, 15 Aug 1991 UTC launched from the Plesetsk Missile And Space Complex (PKMTR). Debris objects in space refer to the collection of defunct objects orbiting the Earth. Examples of debris include non-operational satellites, rocket bodies, and fragments generated from explosions, collisions, or faulty payload assembly.

Loading next visibility...
Identifier
45324, 1991-056BN
Orbit
LEO
Country
Flag of CISCIS
Related business
Manufacturer
Unknown
Mission
Spacecraft
Bus & Motor
Unknown
Mass
Unknown
Launch date (UTC)
1991-08-15 (34 years ago)
Launch vehicle
Unknown
Launch site
Plesetsk Missile And Space Complex (PKMTR)
Object type
Payload
Rocket body
Debris
Shape & HBR
Unknown shape, 0.1 m
Radar Cross Section
Small (<0.1 m²)

Expand to show TLE details & history
Last TLE update: 2 days ago

TLE from 2 days ago
0 SL-14 DEB
1 45324U 91056BN  25286.77112960  .00000259  00000-0  60525-3 0  9992
2 45324  82.5432 302.5497 0023752 326.6365  33.3262 13.20922909272988
Epoch: 2025-10-13T18:30Z
TLE epoch observation values (Epoch: 2025-10-13T18:30:25.597Z)
Latitude
0.00004°
Longitude
2.37392°
Altitude
1,169.017 km
Speed
7.276 km/s
True Right ascension
20h 10m 11s
True Declination
0° 00' 00"
Sunlit
Object was in daylight at epoch
Visualization orbit readout
Latitude
Unknown
Longitude
Unknown
Altitude
Unknown
Speed
Unknown
Apparent Right ascension
Unknown
Apparent Declination
Unknown
Sunlit
N/A
Visualization observer readout
Local Sidereal Time
17:54:32
Azimuth
Unknown
Elevation
Unknown
Doppler factor
Unknown
Orbital elements
Apogee altitude
1,196.385 km
Perigee altitude
1,160.488 km
Semi-major axis
7,556.573 km
Eccentricity
0.00238
Inclination
82.5432°
RAAN
302.5497°
Arg. of periapsis
326.6365°
True anomaly
33.47611°
Mean anomaly
33.3262°
Eccentric anomaly
33.40112°
Mean motion
3.30412 °/min
Orbital period
108.95 mins
BSTAR
0.00060525
Loading maneuver chart data...
Computing Atmospheric mass density...
Loading historical data...
Loading historical data...
Loading historical data...
Loading historical data...
Loading historical data...
Loading historical data...
Loading historical data...

Documentation

Showing up to 5 results
|